カタログに戻る

DEMETER

運用中科学SSO
NORAD 28368·PAYLOAD·🇫🇷 France

打ち上げ Jun 29, 2004 から Baikonur Cosmodrome

Loading…

次のパス (今後24時間)

TLE

最新Source: Space-Track

元期: Sep 14, 2026, 05:44 UTC

1 28368U 04025C   26257.23918586  .00001036  00000-0  13135-3 0  9998
2 28368  98.1376 238.7721 0001368 117.5420 242.5933 14.83965159193889

AllMySatでDEMETERをリアルタイム追跡

Download on the App Store